Location: G�yn�k
(36.6721°N, 30.5542°E)
Time: 21:50:44
(UTC+00:00)

BREEZE-M DEB (TANK) - Pass Details

Date: 05 October 2020
Orbit: 333 x 12040 km, 49.7° (Epoch: 26 October)

Event Time Altitude Azimuth Distance (km) Brightness Sun altitude
Rises 00:16:55 0° 184° (S) 12,577 8.7 -43.1°
Reaches altitude 10° 00:27:10 10° 178° (S) 12,920 8.8 -41.3°
Maximum altitude 01:54:56 58° 113° (ESE) 11,630 8.8 -25.1°
Drops below altitude 10° 02:43:01 10° 53° (NE) 8,802 9.1 -15.6°
Sets 02:47:40 0° 50° (NE) 8,893 9.2 -14.6°
